CALSPHERE 1 1 00900U 64063C 26166.14047940 .00000541 00000+0 54161-3 0 9997 2 00900 90.2235 71.7228 0024185 303.9826 163.8292 13.76621374 71144 CALSPHERE 2 1 00902U 64063E 26166.19685314 .00000032 00000+0 34702-4 0 9992 2 00902 90.2374 75.7475 0016935 229.5075 263.0612 13.52900077855997 LCS 1 1 01361U 65034C 26165.74830367 .00000019 00000+0 14170-2 0 9991 2 01361 32.1357 182.8172 0012308 113.8149 246.3639 9.89310814209641 TEMPSAT 1 1 01512U 65065E 26166.18784404 .00000047 00000+0 78440-4 0 9995 2 01512 89.9990 212.5939 0067738 253.8007 174.5330 13.33593981959788 CALSPHERE 4A 1 01520U 65065H 26166.11789507 .00000092 00000+0 15812-3 0 9999 2 01520 89.8981 122.5081 0071873 108.5855 264.2494 13.36278013962439 OPS 5712 (P/L 160) 1 02826U 67053A 26166.15316927 .00005520 00000+0 77956-3 0 9992 2 02826 69.9175 43.2822 0000816 276.6268 83.4786 14.77695601 65935 OPS 5712 (P/L 153) 1 02874U 67053H 26166.18988561 -.00000017 00000+0 26258-4 0 9994 2 02874 69.9730 119.5875 0008638 216.0125 144.0400 13.96828037 6517 RIGIDSPHERE 2 (LCS 4) 1 05398U 71067E 26166.17365874 .00000539 00000+0 16977-3 0 9997 2 05398 87.6212 339.3688 0057902 238.3966 121.1575 14.37865047873592 COSMOS 2493 (SKRL-756 1) 1 39490U 13078A 26166.15340029 .00002934 00000+0 22082-3 0 9993 2 39490 82.4134 263.1760 0011753 248.1820 111.8155 15.02153223677653 COSMOS 2494 (SKRL-756 2) 1 39491U 13078B 26166.15502632 .00002469 00000+0 17238-3 0 9994 2 39491 82.4121 252.5721 0015646 205.5707 154.4747 15.04854866678503